Vertical_Velocity
2 -5 -2 -3 -1 -1 -1 -1 -1 1 2 -2 -1 -0 -2 -1 4 6 5 1 0 -6 -2 0 1 6 -1 6 5 5 -5 -4 -3 -4 -4 -3 -4 1 1 5 5 10 -1 -2
-6 -2 -4 -0 0 1 -0 -1 1 3 1 1 0 -3 -2 -1 -0 1 3 2 1 8 -2 4 1 0 4 -4 6 1 -2 -2 -2 -1 -3 -2 -3 1 5 2 -4 0 -2 6
-3 -8 -0 -0 0 -1 0 -2 -0 -5 1 1 0 -2 0 -3 -0 -1 1 6 5 -9 -7 -0 -2 -4 2 -3 -0 2 -0 -3 -3 -1 -2 -1 1 -1 -2 -3 -4 1 2 -1
-1 -4 0 1 -0 -4 1 -2 -1 -1 -1 -1 1 -3 1 -1 -0 0 -1 5 4 0 13 5 -0 -2 -2 -0 4 2 4 1 -2 -3 -4 -2 -1 -1 1 2 5 0 -0 -0
-17 -1 1 2 -8 -3 -5 -3 -4 -1 -0 -3 3 2 -3 2 2 -1 -2 -1 5 3 -10 -6 -7 -0 -4 4 -2 2 3 5 0 -1 -1 -2 -2 2 0 -0 -4 -0 -1 1
-5 0 -1 -5 0 -3 -1 -3 -0 0 -1 -3 -1 -0 -4 -1 -14 1 -1 -1 3 2 4 3 10 4 0 5 1 0 -0 2 1 -2 -0 -2 -2 1 0 -2 -0 -3 -2 -1
-3 -1 1 -7 -9 -2 -4 -1 -2 -3 -4 -3 0 1 -13 -2 -2 -7 -4 -3 -0 2 1 1 -4 -5 -6 -5 -2 -1 -0 -1 1 2 -3 -2 -0 -4 1 2 0 2 -1 -2
-1 -7 -0 1 -7 -13 -2 -5 -8 -5 -2 -2 1 -3 -13 -2 -2 -3 3 -4 3 1 5 -2 -2 -5 -1 -1 -2 1 -3 -0 -1 1 2 2 2 -2 1 2 0 -1 -2 2
-2 -5 -1 -0 -0 -12 -8 -0 -7 -5 -0 -3 -2 -6 -4 1 1 2 -6 2 -1 -10 3 -0 1 -3 -3 0 -5 -5 -4 0 2 2 0 2 -0 1 0 -2 -2 4 2 -0
-3 -4 -2 -2 -2 -2 -9 -7 -6 -4 -2 -0 -3 -1 -4 2 0 1 3 -1 5 -9 3 1 0 -4 3 -2 3 -2 3 -4 -0 1 3 2 3 -0 -0 2 1 5 3 2
-1 -4 -14 0 -2 -4 -2 -0 -3 -8 -4 -5 -2 -10 -6 -5 -3 -3 -1 -1 -3 1 -11 -12 -11 5 4 4 1 -3 1 -1 -3 1 1 -1 2 0 -2 0 1 1 -2 -0
-0 -3 -1 -8 -1 -0 -1 -1 -2 -7 -3 -1 -4 -14 1 -1 -1 -3 -1 -0 1 0 11 -3 -9 5 -2 -3 1 3 1 3 5 0 -2 4 5 1 1 -1 1 2 1 -2
-2 -2 -4 -15 -14 -7 -2 -1 0 -1 -3 -2 -5 -12 0 1 1 2 -3 3 -1 -1 -3 -0 -11 -0 2 1 1 1 4 1 11 1 0 -2 -3 -1 -15 9 5 2 1 6
-1 -0 -4 -7 -4 -0 -2 -1 -1 -4 -3 -3 -5 -4 -0 1 0 3 2 3 2 -2 -0 -8 -3 1 3 5 6 2 -1 -1 2 5 1 -5 -3 -7 -9 0 9 8 8 1
-3 -2 1 -1 0 -1 -0 1 -0 -1 1 -3 -5 -1 1 1 -0 -1 -2 3 -1 0 -2 -12 -1 -2 -4 5 3 -0 8 13 0 3 -7 -18 -0 -14 -3 -2 -7 8 5 9
-2 1 -1 -1 -0 -1 -1 -0 -0 -0 -1 -1 -1 -0 2 2 5 6 8 6 -0 2 6 9 0 7 0 2 4 7 5 2 1 -3 -3 5 -2 4 1 4 14 3 2 -2
-1 -1 -1 -3 0 -2 -6 0 1 0 -0 2 -0 -1 0 -1 -0 1 2 4 3 10 4 5 5 6 -1 -11 -5 1 2 -2 4 -1 7 -2 -7 10 4 3 -0 2 -4 -9
-1 -1 -1 -1 -2 -0 -11 -0 1 -1 1 -0 -1 1 0 1 8 6 3 -3 4 2 1 -1 -3 -4 1 5 3 -1 4 3 0 -4 -2 2 5 -3 -2 -0 1 3 1 -1
-0 -2 -2 -3 -0 -5 -3 -2 -1 -3 1 0 0 2 3 3 -4 -1 3 0 2 6 4 3 5 2 2 6 -0 -6 -1 1 -6 3 -9 -3 1 2 1 -1 3 3 2 5
-1 -3 -7 -1 -2 -4 -7 -0 0 -2 -6 -0 -2 1 -1 0 -5 2 1 3 0 -0 -0 1 -0 1 3 -1 -2 -2 3 -3 -11 -26 -3 9 1 4 3 3 5 -2 1 -1
-2 -2 -2 0 -1 -7 -3 -1 1 -6 -19 -1 0 -1 -1 -5 -6 -2 -6 -6 -4 -0 0 -1 0 4 0 -1 -1 -4 1 2 3 20 9 9 4 9 4 1 -5 -3 -1 0
-3 -4 -1 -1 -0 -4 2 -1 -0 -10 3 -2 1 4 3 -4 2 4 -8 -7 2 0 1 2 -0 -1 1 3 -1 6 2 7 4 8 10 9 2 -1 -4 -3 -1 3 3 3
-3 -9 -8 -9 -11 -3 1 -2 -0 -1 -3 3 -3 -0 -8 -1 5 3 9 10 -12 -4 2 2 -7 -5 -6 -2 1 2 2 2 6 4 3 1 1 -3 3 -1 1 2 1 5
-1 1 -2 -4 -1 -0 4 -0 1 -0 2 -4 2 -1 1 -5 1 -3 2 2 2 -4 -3 1 1 -3 -3 -1 1 -2 -0 2 0 1 0 -1 3 2 -0 3 -4 5 -2 4
-5 -2 -2 -1 1 1 -1 8 1 -1 -3 -5 4 -1 -1 -2 -1 -5 4 2 -6 2 -2 0 -4 -4 1 2 -2 -4 -5 -1 -1 1 -0 -1 -1 -1 0 -1 2 1 1 2
-2 -6 -5 -9 -5 -4 -8 4 10 -7 -2 0 -4 -3 -2 2 -0 -4 -3 -3 2 1 1 2 2 -4 -5 -4 1 1 3 1 3 0 2 0 0 -1 1 -0 -0 0 -2 -1
Height
1501 1509 1515 1507 1509 1509 1513 1521 1529 1531 1530 1529 1533 1532 1532 1530 1530 1531 1531 1535 1537 1540 1545 1550 1554 1557 1560 1564 1567 1570 1571 1574 1577 1579 1582 1585 1587 1588 1590 1591 1591 1592 1593 1594
1506 1511 1503 1503 1506 1507 1512 1524 1533 1534 1533 1536 1533 1532 1532 1533 1530 1530 1530 1532 1535 1539 1545 1549 1553 1557 1559 1562 1565 1568 1571 1574 1577 1580 1582 1584 1586 1589 1591 1591 1591 1592 1593 1595
1510 1502 1499 1502 1506 1512 1518 1520 1526 1526 1533 1533 1534 1533 1529 1530 1526 1528 1528 1530 1533 1533 1540 1547 1550 1554 1558 1560 1563 1566 1569 1572 1576 1580 1582 1584 1585 1588 1590 1591 1592 1592 1592 1594
1504 1497 1498 1502 1507 1510 1522 1508 1515 1523 1530 1540 1533 1538 1521 1523 1527 1525 1527 1529 1531 1533 1537 1542 1548 1551 1555 1559 1562 1566 1568 1571 1575 1578 1581 1583 1585 1587 1589 1591 1592 1593 1593 1594
1506 1498 1498 1503 1500 1501 1512 1508 1516 1524 1529 1533 1534 1542 1520 1520 1521 1521 1525 1527 1529 1530 1533 1537 1543 1547 1553 1558 1561 1565 1568 1571 1573 1576 1579 1581 1583 1586 1589 1590 1591 1591 1592 1593
1496 1490 1492 1492 1490 1492 1505 1518 1525 1527 1528 1538 1526 1533 1522 1516 1510 1509 1521 1526 1528 1530 1533 1536 1541 1547 1552 1557 1560 1563 1566 1569 1572 1574 1577 1580 1582 1584 1586 1588 1588 1589 1590 1591
1497 1491 1489 1488 1501 1505 1506 1525 1545 1541 1541 1538 1529 1536 1518 1503 1499 1505 1512 1521 1525 1526 1530 1534 1538 1545 1550 1554 1557 1561 1563 1566 1570 1572 1574 1576 1579 1582 1584 1586 1586 1587 1588 1589
1509 1510 1493 1486 1494 1501 1510 1513 1531 1539 1544 1537 1528 1527 1505 1493 1496 1500 1508 1515 1522 1525 1527 1530 1533 1540 1545 1550 1555 1558 1561 1564 1567 1570 1572 1575 1577 1580 1582 1584 1584 1585 1586 1588
1510 1506 1484 1484 1484 1488 1505 1513 1501 1523 1530 1535 1524 1505 1496 1489 1495 1499 1506 1510 1516 1522 1525 1527 1532 1536 1541 1547 1551 1555 1558 1561 1564 1567 1570 1573 1576 1578 1580 1582 1583 1583 1584 1586
1500 1512 1484 1479 1481 1487 1490 1489 1510 1519 1535 1541 1528 1517 1506 1491 1489 1488 1493 1497 1502 1512 1520 1524 1529 1534 1538 1542 1548 1552 1556 1560 1563 1566 1569 1571 1574 1577 1578 1580 1581 1583 1583 1584
1497 1506 1495 1482 1485 1491 1493 1496 1500 1505 1515 1532 1539 1513 1474 1471 1473 1478 1483 1488 1496 1503 1508 1519 1526 1530 1534 1537 1544 1548 1553 1556 1560 1564 1567 1570 1573 1575 1577 1578 1580 1581 1582 1582
1495 1506 1508 1491 1479 1479 1479 1493 1495 1510 1511 1515 1515 1501 1466 1467 1470 1475 1480 1486 1494 1502 1507 1511 1521 1526 1530 1534 1540 1544 1549 1553 1557 1561 1565 1568 1572 1574 1576 1577 1578 1579 1580 1580
1490 1507 1516 1500 1486 1484 1492 1489 1485 1496 1502 1510 1514 1497 1468 1465 1470 1475 1480 1486 1491 1497 1505 1511 1518 1525 1527 1531 1536 1541 1546 1552 1556 1558 1561 1565 1569 1570 1571 1575 1577 1577 1577 1578
1489 1505 1508 1523 1504 1500 1501 1496 1487 1492 1509 1504 1498 1480 1469 1471 1472 1478 1481 1487 1490 1494 1503 1507 1518 1522 1525 1529 1534 1540 1543 1547 1551 1555 1557 1561 1563 1565 1567 1571 1573 1574 1575 1576
1490 1503 1503 1498 1496 1496 1501 1497 1492 1494 1496 1499 1480 1482 1474 1476 1474 1478 1482 1487 1490 1495 1497 1505 1513 1517 1522 1526 1530 1535 1539 1541 1546 1550 1553 1555 1561 1562 1566 1566 1568 1570 1571 1572
1491 1500 1502 1503 1496 1494 1503 1498 1492 1496 1497 1491 1488 1486 1483 1479 1477 1480 1483 1485 1490 1492 1497 1500 1505 1510 1515 1522 1527 1530 1535 1537 1543 1546 1550 1554 1557 1557 1561 1564 1566 1566 1568 1567
1499 1501 1506 1511 1504 1493 1508 1505 1500 1499 1499 1498 1499 1496 1487 1486 1485 1487 1489 1490 1495 1498 1500 1502 1505 1507 1513 1518 1524 1527 1532 1536 1539 1544 1547 1550 1551 1557 1559 1561 1562 1562 1564 1564
1500 1506 1512 1513 1510 1520 1500 1498 1499 1497 1500 1497 1493 1493 1490 1490 1492 1491 1494 1495 1497 1499 1503 1507 1509 1512 1515 1519 1520 1522 1526 1531 1535 1539 1542 1546 1548 1553 1556 1557 1558 1559 1560 1562
1499 1506 1519 1519 1525 1513 1498 1495 1497 1498 1503 1498 1495 1494 1493 1492 1492 1497 1501 1501 1502 1505 1506 1507 1508 1510 1512 1513 1517 1520 1525 1526 1530 1535 1536 1541 1546 1549 1552 1554 1556 1557 1558 1559
1500 1502 1512 1523 1519 1523 1500 1493 1494 1494 1512 1499 1495 1494 1494 1492 1502 1508 1509 1509 1508 1508 1508 1508 1510 1511 1511 1513 1514 1519 1524 1526 1528 1526 1530 1538 1543 1546 1548 1551 1553 1555 1557 1559
1514 1516 1522 1523 1522 1512 1495 1492 1495 1506 1510 1496 1496 1493 1493 1497 1503 1507 1510 1512 1511 1511 1510 1510 1510 1512 1513 1514 1517 1521 1523 1525 1526 1529 1531 1535 1541 1544 1547 1549 1551 1553 1556 1557
1508 1518 1522 1526 1521 1514 1493 1495 1501 1493 1491 1493 1495 1494 1494 1497 1502 1502 1504 1515 1514 1513 1513 1512 1513 1514 1516 1517 1519 1520 1523 1526 1528 1527 1530 1532 1538 1542 1545 1548 1550 1553 1555 1554
1510 1504 1510 1511 1511 1496 1493 1492 1491 1491 1492 1493 1493 1497 1500 1503 1502 1506 1509 1507 1515 1518 1517 1515 1517 1518 1521 1522 1523 1524 1525 1527 1529 1532 1535 1537 1538 1542 1544 1545 1548 1549 1552 1553
1496 1494 1501 1501 1500 1497 1493 1495 1495 1495 1494 1494 1496 1497 1502 1502 1508 1507 1516 1514 1515 1517 1521 1520 1519 1523 1524 1526 1527 1528 1530 1531 1532 1534 1536 1537 1541 1541 1542 1544 1546 1547 1549 1552
1492 1494 1498 1501 1498 1499 1498 1498 1498 1497 1496 1497 1500 1501 1503 1507 1510 1514 1518 1517 1520 1519 1522 1523 1521 1525 1526 1528 1529 1530 1532 1533 1535 1536 1537 1538 1539 1540 1542 1545 1547 1547 1548 1550
1487 1491 1498 1500 1490 1493 1496 1497 1499 1498 1499 1500 1500 1502 1506 1509 1512 1516 1519 1522 1524 1523 1524 1525 1525 1526 1529 1531 1531 1533 1534 1536 1537 1538 1539 1539 1540 1542 1543 1545 1546 1547 1548 1549